Погода в Эжанцах

Россия / Республика Саха (Якутия)     60°28′47″N   135°09′57″E
темп.,
°C
ветер,
м/с
пор.,
м/с
влажн.,
%
обл.,
%
осадки,
мм/ч
давл.,
гПа
погр.,
м
18 мая, вт
вт1800:00+1з3799100 0.8 1000287
03:000з3693100 1.8 1002495
06:000зсз4681100 0.0 1004533
09:00+4ссз35505 0.0 10041263
12:00+8с34365 0.0 10031976
15:00+9ссв3331100 0.0 10022508
18:00+8ссв333315 0.0 10022155
21:00+3св2251100 0.0 100328
19 мая, ср
ср1900:00+2св2258100 0.0 100230
03:000с2562100 0.0 100192
06:00+3с41152100 0.0 1001446
09:00+7ссв4638100 0.0 10001040
12:00+9ссв3433100 0.0 10001959
15:00+9ссв2536100 0.0 10002119
18:00+8с4739100 0.0 10011050
21:00+4сз244998 0.0 100474
20 мая, чт
чт2000:00+2сз115952 0.0 100524
03:00−1зсз11662 0.0 100610
06:00+3сз01537 0.0 1005224
09:00+8всв1140100 0.0 1004800
12:00+10всв2334100 0.0 10021593
15:00+12св2335100 0.0 10012006
18:00+6зюз2486100 0.9 1002143
21:00+5ю2389100 1.2 100377
21 мая, пт
пт2100:00+4ююз1193100 0.2 100424
03:00+4с2496100 0.4 1004132
06:00+4зюз2290100 1.4 1005343
09:00+7зсз4674100 1.8 10051033
12:00+11ссз4642100 0.5 10042093
15:00+13сз6735100 0.5 10052325
18:00+12ссз474153 0.0 10051891
21:00+6з235878 0.0 100752
22 мая, сб
сб2200:00+4зсз22573 0.0 100813
03:00+2зюз11600 0.0 100911
06:00+5зюз22520 0.0 1010190
09:00+11зюз33400 0.0 1010890
12:00+14зюз2329100 0.0 10083062
15:00+9ссз236197 0.5 1008244
18:00+9з2358100 0.0 1007344
21:00+5зсз1173100 0.0 100810